Location: Arboyeti
(42.1122°N, 44.6017°E)
Time: 02:45:17
(UTC+00:00)

Envisat - Visible Passes

Search period start: 21 September 2021 00:00
Search period end: 01 October 2021 00:00
Orbit: 764 x 766 km, 98.2° (Epoch: 20 September)

Date Brightness Start Highest point End Pass type
(mag) Time Alt. Az. Time Alt. Az. Time Alt. Az.
21 Sep 5.0 01:29:04 10° NE 01:33:32 31° E 01:38:00 10° SSE visible
22 Sep 6.0 00:53:46 10° ENE 00:56:21 14° E 00:58:54 10° ESE visible
23 Sep 3.9 01:54:01 10° NNE 01:58:59 53° E 02:03:57 10° S visible
24 Sep 5.4 01:17:50 10° NE 01:21:57 24° E 01:26:01 10° SSE visible
25 Sep 6.3 00:43:44 10° ENE 00:44:41 10° E 00:45:39 10° E visible
25 Sep 3.0 02:19:15 10° NNE 02:24:22 88° WNW 02:29:26 10° SSW visible
26 Sep 4.4 01:42:37 10° NNE 01:47:26 42° E 01:52:14 10° SSE visible
27 Sep 5.7 01:06:44 10° NE 01:10:20 19° E 01:13:54 10° SE visible
28 Sep 3.3 02:07:45 10° NNE 02:12:51 74° ESE 02:17:54 10° S visible
29 Sep 4.8 01:31:18 10° NNE 01:35:53 33° E 01:40:25 10° SSE visible
30 Sep 5.9 00:55:49 10° NE 00:58:42 15° E 01:01:34 10° SE visible
